AirNav   Phillips 66 Aviation Fuel
 
 978 users online  

28KY Brandon Airdrome
Murray, Kentucky, USA

GOING TO MURRAY?


FAA INFORMATION EFFECTIVE 03 JANUARY 2019

Location

FAA Identifier: 28KY
Lat/Long: 36-34-33.2000N / 088-18-48.1410W
36-34.553333N / 088-18.802350W
36.5758889 / -88.3133725
(estimated)
Elevation: 525 ft. / 160 m (estimated)
Variation: 01E (1985)
From city: 1 mile S of MURRAY, KY
Time zone: UTC -6 (UTC -5 during Daylight Saving Time)
Zip code: 42071

Airport Operations

Airport use: Private use. Permission required prior to landing
Activation date: 06/1978
Control tower: no
ARTCC: MEMPHIS CENTER
FSS: LOUISVILLE FLIGHT SERVICE STATION
Attendance: UNATNDD
Wind indicator: yes
Segmented circle: no

Airport Communications

WX AWOS-3 at CEY (6 nm NW): 119.975 (270-489-2424)
WX AWOS-3 at PHT (15 nm S): 118.825 (731-644-0451)
WX AWOS-3 at M25 (17 nm NW): 120.625 (270-247-2094)

Nearby radio navigation aids

VOR radial/distance  VOR name  Freq  Var
CNGr133/36.2CUNNINGHAM VOR/DME113.1003E

 
NDB name  Hdg/Dist  Freq  Var  ID
TRAINER014/20.241000ETIQ - .. --.-
HUNTINGDON016/30.221702WHZD .... --.. -..

Airport Services

Runway Information

Runway 1/19

Dimensions: 2100 x 80 ft. / 640 x 24 m
Surface: turf
RUNWAY 1  RUNWAY 19
Traffic pattern: leftleft

Airport Ownership and Management from official FAA records

Ownership: Privately-owned
Owner: H. BRANDON
701 SOUTH 12TH ST
MURRAY, KY 42071
Phone 270-753-4389
CELL- 270-293-8885
Manager: H. BRANDON
701 SOUTH 12TH ST
MURRAY, KY 42071
Phone 270-753-4389

Airport Operational Statistics

Aircraft based on the field: 90
Single engine airplanes: 90
    

Instrument Procedures

There are no published instrument procedures at 28KY.

Some nearby airports with instrument procedures:

KCEY - Kyle-Oakley Field Airport (6 nm NW)
KPHT - Henry County Airport (15 nm S)
M25 - Mayfield Graves County Airport (17 nm NW)
KHZD - Carroll County Airport (30 nm S)
KUCY - Everett-Stewart Regional Airport (35 nm W)
 
Loc | Ops | Rwys | IFR | FBO | Links
Com | Nav | Svcs | Stats | Notes
Area around 28KY (Brandon Airdrome)
 
Road maps at: MapQuest Bing Google
 
Aerial photo
No photo
 
Sectional chart

 
Airport distance calculator
Flying to Brandon Airdrome? Find the distance to fly.

From to 28KY

Sunrise and sunset
Times for 19-Jan-2019
 Local
(UTC-6)
 Zulu
(UTC)
Morning civil twilight06:3612:36
Sunrise07:0413:04
Sunset17:0423:04
Evening civil twilight17:3223:32

Current date and time
Zulu (UTC)  19-Jan-2019 17:45:37
Local (UTC-6)  19-Jan-2019 11:45:37
 
METAR
KCEY 
6nm NW 
191735Z AUTO 31014G21KT 7SM OVC006 12/12 A2954 RMK AO1
KPHT 
15nm S 
191735Z AUTO 23008KT 10SM OVC007 14/13 A2952 RMK A01
KM25 
17nm NW 
191735Z AUTO 32012G17KT 3SM OVC003 06/06 A2958 RMK AO2 P0003 PWINO
TAF
KPAH 
37nm NW 
191516Z 1915/2012 35010KT 3SM -RA BR OVC004 TEMPO 1915/1918 35012G20KT 1SM RA BR OVC002 FM191800 36013G23KT 4SM -SHRA BR OVC005 FM192100 35018G30KT 4SM -RA BR OVC003 FM192200 35020G31KT 2SM RASN OVC008 FM192300 35024G34KT 1 1/2SM -SN BR OVC007 FM200400 34022G31KT P6SM OVC015 FM200600 35019G29KT P6SM OVC020
KHOP 
40nm E 
191600Z 1916/2022 14009KT 8000 -RA SCT007 BKN015 QNH2958INS BECMG 1917/1918 16009KT 8000 -RA OVC007 QNH2952INS BECMG 1923/1924 33015G25KT 6000 -RA BR OVC008 QNH2946INS BECMG 2002/2003 33015G25KT 4800 -SN OVC006 620068 510003 QNH2964INS BECMG 2005/2006 33020G30KT 8000 -SN BKN010 OVC020 620108 510003 QNH2982INS BECMG 2009/2010 36020G30KT 9999 NSW SCT010 510003 QNH2995INS TX13/1919Z TNM05/2015Z
KCKV 
43nm E 
191512Z 1915/2012 18010G19KT 3SM SHRA BR SCT010 BKN020 OVC035 WS020/19040KT FM192100 26011G17KT 6SM -SHRA OVC010 FM200200 33020G30KT 5SM -SHRASN OVC015 FM200900 34016G28KT P6SM OVC020
NOTAMs
Click for the latest NOTAMs
NOTAMs are issued by the DoD/FAA and will open in a separate window not controlled by AirNav.

 

 
 

Would you like to see your business listed on this page?

 If your business provides an interesting product or service to pilots, flight crews, aircraft, or users of the Brandon Airdrome, you should consider listing it here.  To start the listing process, click on the button below
 
Add a business
 

Other Pages about Brandon Airdrome

Update a link
 
Copyright © AirNav, LLC. All rights reserved. Privacy Policy  Contact